Time,TemperatureF,DewpointF,PressureIn,WindDirection,WindDirectionDegrees,WindSpeedMPH,WindSpeedGustMPH,Humidity,HourlyPrecipIn,Conditions,Clouds,dailyrainin,SoftwareType,DateUTC
2014-08-20 00:09:00,60.8,58.8,29.88,SE,135,3.0,3.0,93,0.00,,,0.00,Wunderground v.1.15,2014-08-20 07:09:00,
2014-08-20 00:14:00,60.8,58.8,29.88,SSE,150,2.0,3.0,93,0.00,,,0.00,Wunderground v.1.15,2014-08-20 07:14:00,
2014-08-20 00:19:00,60.8,58.8,29.88,SE,139,2.0,3.0,93,0.00,,,0.00,Wunderground v.1.15,2014-08-20 07:19:00,
2014-08-20 00:29:00,60.7,58.4,29.88,SSW,207,2.0,4.0,92,0.00,,,0.00,Wunderground v.1.15,2014-08-20 07:29:00,
2014-08-20 00:34:00,60.7,58.4,29.88,East,97,3.0,13.0,92,0.00,,,0.00,Wunderground v.1.15,2014-08-20 07:34:00,
2014-08-20 00:44:00,60.8,58.5,29.88,SSE,158,3.0,13.0,92,0.00,,,0.00,Wunderground v.1.15,2014-08-20 07:44:00,
2014-08-20 00:49:00,60.8,58.5,29.88,SSE,150,3.0,13.0,92,0.00,,,0.00,Wunderground v.1.15,2014-08-20 07:49:00,
2014-08-20 00:54:00,60.8,58.5,29.88,SSE,162,3.0,13.0,92,0.00,,,0.00,Wunderground v.1.15,2014-08-20 07:54:00,
2014-08-20 01:00:00,60.8,58.5,29.88,ESE,113,3.0,3.0,92,0.00,,,0.00,Wunderground v.1.15,2014-08-20 08:00:00,
2014-08-20 01:09:00,60.6,58.3,29.87,SE,143,2.0,7.0,92,0.00,,,0.00,Wunderground v.1.15,2014-08-20 08:09:00,
2014-08-20 01:19:00,60.7,58.4,29.87,SE,140,4.0,4.0,92,0.00,,,0.00,Wunderground v.1.15,2014-08-20 08:19:00,
2014-08-20 01:24:00,60.7,58.4,29.87,SE,136,3.0,4.0,92,0.00,,,0.00,Wunderground v.1.15,2014-08-20 08:24:00,
2014-08-20 01:29:00,60.7,58.4,29.87,SE,136,2.0,2.0,92,0.00,,,0.00,Wunderground v.1.15,2014-08-20 08:29:00,
2014-08-20 01:34:00,-999.9,-99.9,29.88,North,32767,-999.0,9.0,255,-99.99,,,0.00,Wunderground v.1.15,2014-08-20 08:34:00,
2014-08-20 01:39:00,-999.9,-99.9,29.87,North,32767,-999.0,9.0,255,-99.99,,,0.00,Wunderground v.1.15,2014-08-20 08:39:00,
2014-08-20 01:44:00,-999.9,-99.9,29.87,North,32767,-999.0,9.0,255,-99.99,,,0.00,Wunderground v.1.15,2014-08-20 08:44:00,
2014-08-20 01:49:00,-999.9,-99.9,29.87,North,32767,-999.0,9.0,255,-99.99,,,0.00,Wunderground v.1.15,2014-08-20 08:49:00,
2014-08-20 01:54:00,-999.9,-99.9,29.87,North,32767,-999.0,9.0,255,-99.99,,,0.00,Wunderground v.1.15,2014-08-20 08:54:00,
2014-08-20 02:00:00,60.3,58.3,29.87,SE,139,3.0,3.0,93,0.00,,,0.00,Wunderground v.1.15,2014-08-20 09:00:00,
2014-08-20 02:09:00,60.3,58.6,29.87,SSE,148,1.0,4.0,94,0.00,,,0.00,Wunderground v.1.15,2014-08-20 09:09:00,
2014-08-20 02:14:00,60.4,58.7,29.87,SSE,160,2.0,4.0,94,0.00,,,0.00,Wunderground v.1.15,2014-08-20 09:14:00,
2014-08-20 02:19:00,60.3,58.3,29.87,East,86,2.0,2.0,93,0.00,,,0.00,Wunderground v.1.15,2014-08-20 09:19:00,
2014-08-20 02:29:00,60.4,58.7,29.87,ESE,121,1.0,1.0,94,0.00,,,0.00,Wunderground v.1.15,2014-08-20 09:29:00,
2014-08-20 02:34:00,60.4,58.7,29.87,ESE,110,1.0,3.0,94,0.00,,,0.00,Wunderground v.1.15,2014-08-20 09:34:00,
2014-08-20 02:39:00,60.5,58.8,29.88,South,184,1.0,7.0,94,0.00,,,0.00,Wunderground v.1.15,2014-08-20 09:39:00,
2014-08-20 02:49:00,60.5,58.8,29.88,SSW,194,3.0,7.0,94,0.00,,,0.00,Wunderground v.1.15,2014-08-20 09:49:00,
2014-08-20 02:54:00,60.6,58.9,29.88,South,184,3.0,7.0,94,0.00,,,0.00,Wunderground v.1.15,2014-08-20 09:54:00,
2014-08-20 02:59:00,60.6,58.9,29.88,SE,126,3.0,5.0,94,0.00,,,0.00,Wunderground v.1.15,2014-08-20 09:59:00,
2014-08-20 03:09:00,60.7,58.7,29.89,SE,135,4.0,4.0,93,0.00,,,0.00,Wunderground v.1.15,2014-08-20 10:09:00,
2014-08-20 03:14:00,60.8,58.8,29.89,SW,215,4.0,4.0,93,0.00,,,0.00,Wunderground v.1.15,2014-08-20 10:14:00,
2014-08-20 03:19:00,60.8,58.8,29.89,SSW,210,2.0,5.0,93,0.00,,,0.00,Wunderground v.1.15,2014-08-20 10:19:00,
2014-08-20 03:24:00,60.8,58.8,29.89,ESE,117,2.0,11.0,93,0.00,,,0.00,Wunderground v.1.15,2014-08-20 10:24:00,
2014-08-20 03:34:00,60.9,58.6,29.89,South,177,3.0,7.0,92,0.00,,,0.00,Wunderground v.1.15,2014-08-20 10:34:00,
2014-08-20 03:44:00,61.0,58.7,29.88,SE,131,3.0,7.0,92,0.00,,,0.00,Wunderground v.1.15,2014-08-20 10:44:00,
2014-08-20 03:49:00,61.0,58.7,29.88,SSE,167,3.0,7.0,92,0.00,,,0.00,Wunderground v.1.15,2014-08-20 10:49:00,
2014-08-20 03:54:00,60.9,58.9,29.88,SE,145,3.0,7.0,93,0.00,,,0.00,Wunderground v.1.15,2014-08-20 10:54:00,
2014-08-20 04:00:00,60.9,58.9,29.88,SW,215,3.0,3.0,93,0.00,,,0.00,Wunderground v.1.15,2014-08-20 11:00:00,
2014-08-20 04:09:00,60.7,59.0,29.88,East,93,4.0,4.0,94,0.00,,,0.00,Wunderground v.1.15,2014-08-20 11:09:00,
2014-08-20 04:19:00,60.6,58.9,29.88,SE,131,2.0,5.0,94,0.00,,,0.00,Wunderground v.1.15,2014-08-20 11:19:00,
2014-08-20 04:24:00,60.5,58.8,29.88,South,170,3.0,6.0,94,0.00,,,0.00,Wunderground v.1.15,2014-08-20 11:24:00,
2014-08-20 04:29:00,60.5,58.8,29.87,SE,134,4.0,4.0,94,0.00,,,0.00,Wunderground v.1.15,2014-08-20 11:29:00,
2014-08-20 04:34:00,60.4,58.7,29.88,SSE,162,4.0,13.0,94,0.00,,,0.00,Wunderground v.1.15,2014-08-20 11:34:00,
2014-08-20 04:44:00,60.4,58.4,29.87,SSE,158,2.0,13.0,93,0.00,,,0.00,Wunderground v.1.15,2014-08-20 11:44:00,
2014-08-20 04:49:00,60.4,58.4,29.87,WNW,295,2.0,2.0,93,0.00,,,0.00,Wunderground v.1.15,2014-08-20 11:49:00,
2014-08-20 04:54:00,60.3,58.3,29.87,SSW,207,1.0,13.0,93,0.00,,,0.00,Wunderground v.1.15,2014-08-20 11:54:00,
2014-08-20 05:00:00,60.2,58.2,29.87,East,100,0.0,0.0,93,0.00,,,0.00,Wunderground v.1.15,2014-08-20 12:00:00,
2014-08-20 05:09:00,60.0,58.0,29.87,South,188,0.0,0.0,93,0.00,,,0.00,Wunderground v.1.15,2014-08-20 12:09:00,
2014-08-20 05:19:00,59.9,57.9,29.88,NE,45,2.0,2.0,93,0.00,,,0.00,Wunderground v.1.15,2014-08-20 12:19:00,
2014-08-20 05:24:00,59.8,57.8,29.88,ESE,114,2.0,2.0,93,0.00,,,0.00,Wunderground v.1.15,2014-08-20 12:24:00,
2014-08-20 05:29:00,59.8,57.5,29.88,WSW,255,2.0,4.0,92,0.00,,,0.00,Wunderground v.1.15,2014-08-20 12:29:00,
2014-08-20 05:34:00,59.9,57.6,29.88,SE,139,2.0,9.0,92,0.00,,,0.00,Wunderground v.1.15,2014-08-20 12:34:00,
2014-08-20 05:39:00,59.9,57.6,29.88,SE,139,2.0,9.0,92,0.00,,,0.00,Wunderground v.1.15,2014-08-20 12:39:00,
2014-08-20 05:44:00,59.9,57.6,29.88,ESE,104,3.0,9.0,92,0.00,,,0.00,Wunderground v.1.15,2014-08-20 12:44:00,
2014-08-20 05:54:00,60.0,57.7,29.89,SE,135,4.0,9.0,92,0.00,,,0.00,Wunderground v.1.15,2014-08-20 12:54:00,
2014-08-20 06:00:00,60.0,57.4,29.89,SW,217,3.0,3.0,91,0.00,,,0.00,Wunderground v.1.15,2014-08-20 13:00:00,
2014-08-20 06:09:00,60.0,57.4,29.89,ESE,110,2.0,2.0,91,0.00,,,0.00,Wunderground v.1.15,2014-08-20 13:09:00,
2014-08-20 06:14:00,60.1,57.5,29.89,ESE,115,3.0,6.0,91,0.00,,,0.00,Wunderground v.1.15,2014-08-20 13:14:00,
2014-08-20 06:19:00,60.1,57.5,29.90,ESE,117,3.0,3.0,91,0.00,,,0.00,Wunderground v.1.15,2014-08-20 13:19:00,
2014-08-20 06:24:00,60.1,57.5,29.89,SSW,203,3.0,4.0,91,0.00,,,0.00,Wunderground v.1.15,2014-08-20 13:24:00,
2014-08-20 06:29:00,60.1,57.5,29.90,SE,141,3.0,3.0,91,0.00,,,0.00,Wunderground v.1.15,2014-08-20 13:29:00,
2014-08-20 06:34:00,60.2,57.6,29.90,South,183,3.0,4.0,91,0.00,,,0.00,Wunderground v.1.15,2014-08-20 13:34:00,
2014-08-20 06:39:00,60.2,57.6,29.90,ESE,116,2.0,2.0,91,0.00,,,0.00,Wunderground v.1.15,2014-08-20 13:39:00,
2014-08-20 06:44:00,60.3,57.7,29.90,SSW,194,1.0,8.0,91,0.00,,,0.00,Wunderground v.1.15,2014-08-20 13:44:00,
2014-08-20 06:54:00,60.3,58.0,29.90,SSW,204,3.0,8.0,92,0.00,,,0.00,Wunderground v.1.15,2014-08-20 13:54:00,
2014-08-20 06:59:00,60.3,57.7,29.90,SSE,150,3.0,5.0,91,0.00,,,0.00,Wunderground v.1.15,2014-08-20 13:59:00,
2014-08-20 07:09:00,60.4,57.8,29.90,SSE,159,4.0,4.0,91,0.00,,,0.00,Wunderground v.1.15,2014-08-20 14:09:00,
2014-08-20 07:14:00,60.5,57.9,29.90,SSE,160,3.0,4.0,91,0.00,,,0.00,Wunderground v.1.15,2014-08-20 14:14:00,
2014-08-20 07:19:00,60.5,57.6,29.90,SE,136,3.0,3.0,90,0.00,,,0.00,Wunderground v.1.15,2014-08-20 14:19:00,
2014-08-20 07:24:00,60.6,58.0,29.90,NE,47,2.0,3.0,91,0.00,,,0.00,Wunderground v.1.15,2014-08-20 14:24:00,
2014-08-20 07:34:00,60.8,57.8,29.91,SE,125,3.0,5.0,90,0.00,,,0.00,Wunderground v.1.15,2014-08-20 14:34:00,
2014-08-20 07:39:00,60.9,57.9,29.91,SE,128,3.0,3.0,90,0.00,,,0.00,Wunderground v.1.15,2014-08-20 14:39:00,
2014-08-20 07:44:00,61.1,57.8,29.91,SE,134,2.0,10.0,89,0.00,,,0.00,Wunderground v.1.15,2014-08-20 14:44:00,
2014-08-20 07:49:00,61.1,57.8,29.91,SSE,158,3.0,10.0,89,0.00,,,0.00,Wunderground v.1.15,2014-08-20 14:49:00,
2014-08-20 07:54:00,61.1,57.8,29.92,SSE,155,4.0,10.0,89,0.00,,,0.00,Wunderground v.1.15,2014-08-20 14:54:00,
2014-08-20 08:00:00,61.1,57.8,29.92,ESE,113,4.0,4.0,89,0.00,,,0.00,Wunderground v.1.15,2014-08-20 15:00:00,
2014-08-20 08:09:00,61.3,58.0,29.92,SSE,167,4.0,8.0,89,0.00,,,0.00,Wunderground v.1.15,2014-08-20 15:09:00,
2014-08-20 08:14:00,61.2,57.9,29.92,South,174,6.0,8.0,89,0.00,,,0.00,Wunderground v.1.15,2014-08-20 15:14:00,
2014-08-20 08:19:00,61.4,58.1,29.92,South,172,5.0,6.0,89,0.00,,,0.00,Wunderground v.1.15,2014-08-20 15:19:00,
2014-08-20 08:24:00,61.4,58.1,29.92,East,92,5.0,6.0,89,0.00,,,0.00,Wunderground v.1.15,2014-08-20 15:24:00,
2014-08-20 08:29:00,61.4,58.1,29.93,SE,131,5.0,9.0,89,0.00,,,0.00,Wunderground v.1.15,2014-08-20 15:29:00,
2014-08-20 08:34:00,61.3,58.0,29.93,SSE,156,6.0,9.0,89,0.00,,,0.00,Wunderground v.1.15,2014-08-20 15:34:00,
2014-08-20 08:44:00,61.4,58.1,29.93,SSE,150,3.0,8.0,89,0.00,,,0.00,Wunderground v.1.15,2014-08-20 15:44:00,
2014-08-20 08:49:00,61.4,58.1,29.93,ESE,108,4.0,4.0,89,0.00,,,0.00,Wunderground v.1.15,2014-08-20 15:49:00,
2014-08-20 08:54:00,61.4,58.1,29.93,SE,145,5.0,6.0,89,0.00,,,0.00,Wunderground v.1.15,2014-08-20 15:54:00,
2014-08-20 09:04:00,61.3,58.3,29.93,East,101,4.0,4.0,90,0.00,,,0.00,Wunderground v.1.15,2014-08-20 16:04:00,
2014-08-20 09:09:00,61.2,58.6,29.93,WSW,248,5.0,5.0,91,0.00,,,0.00,Wunderground v.1.15,2014-08-20 16:09:00,
2014-08-20 09:19:00,61.0,58.4,29.94,SW,225,6.0,6.0,91,0.00,,,0.00,Wunderground v.1.15,2014-08-20 16:19:00,
2014-08-20 09:24:00,61.1,58.5,29.94,SE,131,5.0,10.0,91,0.00,,,0.00,Wunderground v.1.15,2014-08-20 16:24:00,
2014-08-20 09:29:00,61.1,58.5,29.94,SE,140,4.0,4.0,91,0.00,,,0.00,Wunderground v.1.15,2014-08-20 16:29:00,
2014-08-20 09:34:00,61.1,58.5,29.94,SE,141,4.0,16.0,91,0.00,,,0.00,Wunderground v.1.15,2014-08-20 16:34:00,
2014-08-20 09:39:00,61.1,58.5,29.94,South,191,4.0,4.0,91,0.00,,,0.00,Wunderground v.1.15,2014-08-20 16:39:00,
2014-08-20 09:44:00,61.2,58.6,29.95,ESE,118,5.0,7.0,91,0.00,,,0.00,Wunderground v.1.15,2014-08-20 16:44:00,
2014-08-20 09:54:00,61.3,58.3,29.95,ENE,72,5.0,16.0,90,0.00,,,0.00,Wunderground v.1.15,2014-08-20 16:54:00,
2014-08-20 10:00:00,61.4,58.1,29.95,ESE,118,5.0,12.0,89,0.00,,,0.00,Wunderground v.1.15,2014-08-20 17:00:00,
2014-08-20 10:09:00,61.6,58.3,29.95,East,100,6.0,6.0,89,0.00,,,0.00,Wunderground v.1.15,2014-08-20 17:09:00,
2014-08-20 10:14:00,61.7,58.1,29.95,SW,218,5.0,6.0,88,0.00,,,0.00,Wunderground v.1.15,2014-08-20 17:14:00,
2014-08-20 10:19:00,61.7,58.1,29.95,SE,136,5.0,6.0,88,0.00,,,0.00,Wunderground v.1.15,2014-08-20 17:19:00,
2014-08-20 10:24:00,62.0,58.4,29.95,SSE,147,5.0,6.0,88,0.00,,,0.00,Wunderground v.1.15,2014-08-20 17:24:00,
2014-08-20 10:29:00,62.2,58.6,29.95,SE,142,3.0,4.0,88,0.00,,,0.00,Wunderground v.1.15,2014-08-20 17:29:00,
2014-08-20 10:34:00,62.1,57.9,29.96,SSW,204,5.0,5.0,86,0.00,,,0.00,Wunderground v.1.15,2014-08-20 17:34:00,
2014-08-20 10:39:00,62.2,58.3,29.96,ESE,114,6.0,6.0,87,0.00,,,0.00,Wunderground v.1.15,2014-08-20 17:39:00,
2014-08-20 10:44:00,62.6,58.4,29.96,ESE,113,5.0,16.0,86,0.00,,,0.00,Wunderground v.1.15,2014-08-20 17:44:00,
2014-08-20 10:54:00,62.8,58.2,29.96,West,269,6.0,16.0,85,0.00,,,0.00,Wunderground v.1.15,2014-08-20 17:54:00,
2014-08-20 10:59:00,62.8,58.5,29.96,SSE,166,5.0,5.0,86,0.00,,,0.00,Wunderground v.1.15,2014-08-20 17:59:00,
2014-08-20 11:09:00,62.8,58.5,29.97,ESE,114,4.0,8.0,86,0.00,,,0.00,Wunderground v.1.15,2014-08-20 18:09:00,
2014-08-20 11:14:00,62.7,58.5,29.97,SE,131,5.0,8.0,86,0.00,,,0.00,Wunderground v.1.15,2014-08-20 18:14:00,
2014-08-20 11:19:00,62.6,58.7,29.97,South,174,6.0,6.0,87,0.00,,,0.00,Wunderground v.1.15,2014-08-20 18:19:00,
2014-08-20 11:24:00,62.7,58.8,29.96,SSE,149,5.0,6.0,87,0.00,,,0.00,Wunderground v.1.15,2014-08-20 18:24:00,
2014-08-20 11:34:00,62.7,58.8,29.96,SSW,193,4.0,17.0,87,0.00,,,0.00,Wunderground v.1.15,2014-08-20 18:34:00,
2014-08-20 11:44:00,62.9,58.6,29.96,SE,140,5.0,17.0,86,0.00,,,0.00,Wunderground v.1.15,2014-08-20 18:44:00,
2014-08-20 11:49:00,63.0,58.7,29.96,SW,224,5.0,5.0,86,0.00,,,0.00,Wunderground v.1.15,2014-08-20 18:49:00,
2014-08-20 11:54:00,63.2,58.9,29.96,ESE,110,5.0,8.0,86,0.00,,,0.00,Wunderground v.1.15,2014-08-20 18:54:00,
2014-08-20 12:00:00,63.3,59.0,29.97,SSE,159,4.0,4.0,86,0.00,,,0.00,Wunderground v.1.15,2014-08-20 19:00:00,
2014-08-20 12:09:00,63.1,59.2,29.96,SSW,195,5.0,9.0,87,0.00,,,0.00,Wunderground v.1.15,2014-08-20 19:09:00,
2014-08-20 12:19:00,63.0,59.1,29.97,SSE,153,5.0,7.0,87,0.00,,,0.00,Wunderground v.1.15,2014-08-20 19:19:00,
2014-08-20 12:24:00,62.9,59.0,29.97,South,188,5.0,7.0,87,0.00,,,0.00,Wunderground v.1.15,2014-08-20 19:24:00,
2014-08-20 12:29:00,63.0,59.4,29.97,SSE,153,5.0,5.0,88,0.00,,,0.00,Wunderground v.1.15,2014-08-20 19:29:00,
2014-08-20 12:34:00,63.3,59.7,29.97,SSW,207,5.0,14.0,88,0.00,,,0.00,Wunderground v.1.15,2014-08-20 19:34:00,
2014-08-20 12:39:00,63.5,59.6,29.97,SSW,195,4.0,4.0,87,0.00,,,0.00,Wunderground v.1.15,2014-08-20 19:39:00,
2014-08-20 12:44:00,63.5,59.9,29.97,South,173,4.0,5.0,88,0.00,,,0.00,Wunderground v.1.15,2014-08-20 19:44:00,
2014-08-20 12:49:00,63.5,60.2,29.97,WNW,300,6.0,6.0,89,0.00,,,0.00,Wunderground v.1.15,2014-08-20 19:49:00,
2014-08-20 12:59:00,63.7,60.1,29.97,SSW,198,4.0,7.0,88,0.00,,,0.00,Wunderground v.1.15,2014-08-20 19:59:00,
2014-08-20 13:09:00,62.1,60.1,29.96,SSE,148,6.0,9.0,93,0.00,,,0.00,Wunderground v.1.15,2014-08-20 20:09:00,
2014-08-20 13:14:00,61.6,59.6,29.96,WSW,240,6.0,9.0,93,0.00,,,0.00,Wunderground v.1.15,2014-08-20 20:14:00,
2014-08-20 13:24:00,61.2,59.5,29.97,South,174,5.0,6.0,94,0.00,,,0.00,Wunderground v.1.15,2014-08-20 20:24:00,
2014-08-20 13:34:00,61.2,59.8,29.97,SSE,156,6.0,15.0,95,0.00,,,0.00,Wunderground v.1.15,2014-08-20 20:34:00,
2014-08-20 13:39:00,61.2,60.1,29.96,East,86,5.0,5.0,96,0.00,,,0.00,Wunderground v.1.15,2014-08-20 20:39:00,
2014-08-20 13:44:00,61.2,60.1,29.96,SSE,158,4.0,15.0,96,0.00,,,0.00,Wunderground v.1.15,2014-08-20 20:44:00,
2014-08-20 13:49:00,61.3,60.2,29.96,SSW,193,4.0,15.0,96,0.00,,,0.00,Wunderground v.1.15,2014-08-20 20:49:00,
2014-08-20 14:00:00,61.0,59.9,29.95,SW,220,8.0,12.0,96,0.00,,,0.00,Wunderground v.1.15,2014-08-20 21:00:00,
2014-08-20 14:09:00,61.2,59.8,29.95,SE,145,8.0,11.0,95,0.00,,,0.00,Wunderground v.1.15,2014-08-20 21:09:00,
2014-08-20 14:14:00,61.5,59.8,29.95,SSE,163,8.0,11.0,94,0.00,,,0.00,Wunderground v.1.15,2014-08-20 21:14:00,
2014-08-20 14:19:00,61.8,60.1,29.95,SSW,204,7.0,10.0,94,0.00,,,0.00,Wunderground v.1.15,2014-08-20 21:19:00,
2014-08-20 14:24:00,62.1,59.7,29.95,SW,215,8.0,11.0,92,0.00,,,0.00,Wunderground v.1.15,2014-08-20 21:24:00,
2014-08-20 14:29:00,62.5,60.1,29.95,SE,142,8.0,8.0,92,0.00,,,0.00,Wunderground v.1.15,2014-08-20 21:29:00,
2014-08-20 14:34:00,62.8,59.8,29.95,SSW,198,6.0,18.0,90,0.00,,,0.00,Wunderground v.1.15,2014-08-20 21:34:00,
2014-08-20 14:39:00,63.0,59.7,29.95,SE,135,5.0,5.0,89,0.00,,,0.00,Wunderground v.1.15,2014-08-20 21:39:00,
2014-08-20 14:44:00,63.3,60.0,29.95,West,263,5.0,18.0,89,0.00,,,0.00,Wunderground v.1.15,2014-08-20 21:44:00,
2014-08-20 14:54:00,63.4,59.8,29.95,SSE,148,6.0,6.0,88,0.00,,,0.00,Wunderground v.1.15,2014-08-20 21:54:00,
2014-08-20 14:59:00,63.9,59.6,29.94,South,176,7.0,7.0,86,0.00,,,0.00,Wunderground v.1.15,2014-08-20 21:59:00,
2014-08-20 15:09:00,64.0,59.4,29.94,ESE,108,8.0,8.0,85,0.00,,,0.00,Wunderground v.1.15,2014-08-20 22:09:00,
2014-08-20 15:14:00,63.9,59.3,29.94,South,169,8.0,9.0,85,0.00,,,0.00,Wunderground v.1.15,2014-08-20 22:14:00,
2014-08-20 15:19:00,64.1,59.5,29.94,SW,225,8.0,9.0,85,0.00,,,0.00,Wunderground v.1.15,2014-08-20 22:19:00,
2014-08-20 15:24:00,64.1,59.5,29.94,ESE,110,8.0,9.0,85,0.00,,,0.00,Wunderground v.1.15,2014-08-20 22:24:00,
2014-08-20 15:29:00,64.1,59.5,29.93,SE,131,8.0,8.0,85,0.00,,,0.00,Wunderground v.1.15,2014-08-20 22:29:00,
2014-08-20 15:39:00,64.7,59.8,29.93,SSW,201,7.0,7.0,84,0.00,,,0.00,Wunderground v.1.15,2014-08-20 22:39:00,
2014-08-20 15:49:00,64.7,59.8,29.92,SSW,201,7.0,7.0,84,0.00,,,0.00,Wunderground v.1.15,2014-08-20 22:49:00,
2014-08-20 15:54:00,65.1,59.8,29.93,South,183,6.0,17.0,83,0.00,,,0.00,Wunderground v.1.15,2014-08-20 22:54:00,
2014-08-20 15:59:00,65.4,59.8,29.93,SE,135,6.0,11.0,82,0.00,,,0.00,Wunderground v.1.15,2014-08-20 22:59:00,
2014-08-20 16:09:00,65.5,59.5,29.93,SSW,210,6.0,8.0,81,0.00,,,0.00,Wunderground v.1.15,2014-08-20 23:09:00,
2014-08-20 16:14:00,65.4,59.8,29.93,SE,131,7.0,15.0,82,0.00,,,0.00,Wunderground v.1.15,2014-08-20 23:14:00,
2014-08-20 16:19:00,65.0,59.7,29.93,SE,129,7.0,7.0,83,0.00,,,0.00,Wunderground v.1.15,2014-08-20 23:19:00,
2014-08-20 16:24:00,65.0,59.4,29.93,ENE,58,6.0,7.0,82,0.00,,,0.00,Wunderground v.1.15,2014-08-20 23:24:00,
2014-08-20 16:29:00,64.8,59.5,29.93,NE,53,7.0,7.0,83,0.00,,,0.00,Wunderground v.1.15,2014-08-20 23:29:00,
2014-08-20 16:39:00,64.5,58.9,29.93,SSW,204,8.0,22.0,82,0.00,,,0.00,Wunderground v.1.15,2014-08-20 23:39:00,